sat.trackr.live / text

‹ back to catalog

2023-091P

NORAD 57179 · 2023-091P

PAYLOAD ACTIVE UNKNOWN

§ Identity

Operator
Country
CIS
Launch date
2023-06-27
Launch site
VOSTO
Launch vehicle
Mass (kg)
RCS (m²)

External: N2YO · Heavens-Above · Gunter

§ Orbital elements

Epoch: 2026-09-21T22:18:01.533888Z

Period
94.92 min
Inclination
97.4995°
Eccentricity
0.0015574
Mean motion
15.17105962 rev/d
Perigee alt
503.9 km
Apogee alt
525.3 km
Semi-major
6,892.7 km
B*
1.1838e-4
RAAN
319.9510°
Arg perigee
144.7238°
Mean anomaly
215.5030°
Rev number
17,845

§ Raw data

2023-091P1 57179U 23091P   26264.92918442  .00002284  00000+0  11838-3 0  99922 57179  97.4995 319.9510 0015574 144.7238 215.5030 15.17105962178451

JSON: /api/v1/satellites/57179 · /tle

For live sub-satellite position, see the globe view (requires WebGL).

§ Visibility from observer

Set your observer location to see the next 7 days of passes ≥ 10°. The values pass through the URL so the page stays shareable.

No JS? Fill the form by hand. The geolocation button needs JavaScript.

§ Radio — SatNOGS DB

ModeDescriptionDownlinkUplink
GFSK Mode U - GFSK9k6 436.700 MHz
GFSK Mode U - GFSK9k6 436.500 MHz
LoRa Mode U - LoRa (SF:10 CR:5 BW:250) 436.500 MHz

3 transmitters · refreshed weekly from db.satnogs.org